Voltar ao catálogo

CZ-6A DEB

AtivoPO
NORAD 54614·DEBRIS·🇨🇳 China

Lançado Nov 11, 2022 de Taiyuan Satellite Launch Center

Loading…

Próximas Passagens (próximas 24 horas)

TLE

AtualizadoSource: Space-Track

Época: Sep 14, 2026, 05:29 UTC

1 54614U 22151NQ  26257.22895812  .00075481  00000-0  33767-2 0  9993
2 54614  98.6289 359.2342 0028462 273.0618  86.7357 15.20621523133304

Acompanhe CZ-6A DEB em tempo real com AllMySat

Download on the App Store